Tracking 20621 objects as of 30-Mar-2020
HD Live streaming from Space Station
objects crossing your sky now

BLACK ARROW R/B

Track BLACK ARROW R/B now!
10-day predictions


NORAD ID: 5581
Int'l Code: 1971-093B
Perigee: 536.0 km
Apogee: 1,312.9 km
Inclination: 82.0 °
Period: 103.4 minutes
Semi major axis: 7295 km
RCS: 0.8037 m2 (medium)
Launch date: October 28, 1971
Source: United Kingdom (UK)
Launch site: WOOMERA (WOMRA)

Note: This is a ROCKET BODY
aabbcc
Your satellite tracking list
Your tracking list is empty




NASA's NSSDC Master Catalog

Two Line Element Set (TLE):
1  5581U 71093B   20090.39017964  .00000134  00000-0  27952-4 0  9996
2  5581  82.0403 139.0028 0532462 313.0582  42.7135 13.93249563430346
Source of the keplerian elements: AFSPC